Location: Hohenfelde
(53.8441°N, 9.6220°E)
Time: 11:19:57
(UTC+00:00)

Cosmos 405 Rocket - Pass Details

Date: 14 July 2020
Orbit: 489 x 555 km, 81.3° (Epoch: 09 August)

Event Time Altitude Azimuth Distance (km) Brightness Sun altitude
Exits shadow 00:52:52 19° 184° (S) 1,275 4.1 -12.3°
Maximum altitude 00:55:31 75° 101° (E) 532 2.7 -12.2°
Drops below altitude 10° 00:59:17 10° 16° (NNE) 1,719 6.9 -12.0°
Sets 01:01:24 0° 15° (NNE) 2,600 8.3 -11.9°
